This demonstration page uses our WeatherBlox Daily Observations layout. Learn more.

Left ArrowRight Arrow

Hourly Observations for July 5, 2015

Temp ( °F °C ) Dew Point ( °F °C ) Humidity (%) Winds ( mph kmh ) Pressure ( in mb ) Visibility ( mi km ) Precip ( " mm )
12:52 am 00:52 Clear 73 22.8 68 20 84 84 SSE 7 11 29.98 1015 7 11 0.00 0.00
1:52 am 01:52 Clear 72 22.2 68 20 87 87 SSE 6 9 29.99 1016 8 13 0.00 0.00
2:52 am 02:52 Clear 71 21.7 68 20 90 90 SSE 7 11 29.99 1016 9 14 0.00 0.00
3:52 am 03:52 Clear 71 21.7 68 20 90 90 SSE 9 15 29.97 1015 9 14 0.00 0.00
4:52 am 04:52 Clear 70 21.1 68 20 93 93 SSE 9 15 29.98 1015 8 13 0.00 0.00
5:06 am 05:06 Partly Cloudy 72 22 68 20 88 88 SSE 12 19 30.00 1016 8 13 0.00 0.00
5:17 am 05:17 Mostly Cloudy 70 21.1 68 20 93 93 SSE 10 17 30.00 1016 7 11 0.00 0.00
5:52 am 05:52 Cloudy with Mist and Fog 70 21.1 69 20.6 97 97 SSE 8 13 30.00 1016 5 8 0.00 0.00
6:52 am 06:52 Cloudy with Mist and Fog 71 21.7 69 20.6 94 94 SSE 12 19 30.01 1016 4 6 0.00 0.00
7:52 am 07:52 Cloudy with Mist and Fog 72 22.2 70 21.1 94 94 SSE 12 19 30.01 1016 6 10 0.00 0.00
8:35 am 08:35 Cloudy 73 22.8 70 21.1 90 90 SSE 9 15 30.03 1017 8 13 0.00 0.00
8:52 am 08:52 Cloudy 74 23.3 70 21.1 88 88 SSE 9 15 30.02 1017 9 14 0.00 0.00
9:45 am 09:45 Cloudy 77 25 71 21.7 82 82 S 8 13 30.00 1016 10 16 0.00 0.00
9:52 am 09:52 Cloudy 77 25 71 21.7 82 82 S 8 13 30.02 1017 10 16 0.00 0.00
10:52 am 10:52 Mostly Cloudy 78 25.6 71 21.7 79 79 S 9 15 30.02 1017 9 14 0.00 0.00
11:13 am 11:13 Mostly Sunny 79 26.1 71 21.7 77 77 S 10 17 29.97 1015 10 16 0.00 0.00
11:52 am 11:52 Partly Cloudy 81 27.2 71 21.7 72 72 SSE 7 11 30.00 1016 10 16 0.00 0.00
12:52 pm 12:52 Mostly Sunny 83 28.3 71 21.7 67 67 S 6 9 30.00 1016 10 16 0.00 0.00
1:52 pm 13:52 Partly Cloudy 85 29.4 72 22.2 65 65 VRB 6 9 29.98 1015 10 16 0.00 0.00
2:52 pm 14:52 Mostly Cloudy 87 30.6 73 22.8 63 63 SSE 7 11 29.96 1015 10 16 0.00 0.00
3:52 pm 15:52 Partly Cloudy 86 30 73 22.8 65 65 S 10 17 29.95 1014 10 16 0.00 0.00
4:12 pm 16:12 Sunny with Nearby Thunderstorms 88 31 73 23 62 62 SSE 14 22 29.91 1013 10 16 0.00 0.00
4:27 pm 16:27 Mostly Sunny 87 30.6 73 22.8 63 63 ESE 14 22 29.88 1012 10 16 0.00 0.00
4:36 pm 16:36 Partly Cloudy with Thunderstorms 84 29 73 23 70 70 ESE 15 24 29.91 1013 10 16 0.00 0.00
4:52 pm 16:52 Mostly Cloudy with Thunderstorms 81 27.2 70 21.1 69 69 ESE 24 39 29.94 1014 10 16 0.00 0.00
5:19 pm 17:19 Cloudy with Strong Thunderstorms 72 22.2 67 19.4 84 84 SSW 35 56 30.03 1017 2 3 0.02 0.51
5:23 pm 17:23 Cloudy with Strong Thunderstorms 73 22.8 68 20 84 84 SW 30 48 30.06 1018 1 1 0.05 1.27
5:28 pm 17:28 Cloudy with Strong Thunderstorms 71 21.7 68 20 90 90 SSW 40 65 30.03 1017 0 0 0.14 3.56
5:37 pm 17:37 Cloudy with Strong Thunderstorms 69 20.6 65 18.3 87 87 SSE 25 41 30.03 1017 0 0 0.84 21.34
5:43 pm 17:43 Cloudy with Strong Thunderstorms 72 22.2 66 18.9 82 82 S 20 31 30.00 1016 1 1 1.24 31.50
5:48 pm 17:48 Cloudy with Strong Thunderstorms 72 22 66 19 83 83 S 17 28 30.00 1016 1 2 0.00 0.00
5:52 pm 17:52 Cloudy with Strong Thunderstorms 70 21.1 67 19.4 90 90 SSW 18 30 30.01 1016 2 2 1.35 34.29
5:59 pm 17:59 Cloudy with Strong Thunderstorms 70 21.1 67 19.4 90 90 W 12 19 30.00 1016 2 2 0.09 2.29
6:16 pm 18:16 Cloudy with Nearby Thunderstorms 70 21 64 18 83 83 N 6 9 29.97 1015 1 2 0.00 0.00
6:24 pm 18:24 Cloudy with Thunderstorms 70 21 66 19 88 88 N 3 6 29.97 1015 3 5 0.00 0.00
6:43 pm 18:43 Mostly Cloudy 72 22.2 68 20 87 87 NNW 6 9 29.94 1014 10 16 0.31 7.87
6:52 pm 18:52 Partly Cloudy 73 22.8 68 20 84 84 ESE 12 19 29.96 1015 10 16 0.31 7.87
7:52 pm 19:52 Sunny 74 23.3 68 20 82 82 SSW 9 15 29.95 1014 10 16 0.00 0.00
8:52 pm 20:52 Clear 72 22.2 68 20 87 87 SE 6 9 29.96 1014 10 16 0.00 0.00
9:52 pm 21:52 Partly Cloudy 72 22.2 66 18.9 82 82 SSE 10 17 29.98 1015 10 16 0.00 0.00
10:52 pm 22:52 Clear 72 22.2 67 19.4 84 84 SSE 12 19 29.98 1015 10 16 0.00 0.00
11:52 pm 23:52 Clear 72 22.2 67 19.4 84 84 SSE 13 20 29.96 1014 10 16 0.00 0.00

Powered by AerisWeather